Location: Newark
(34.9500°N, 139.9667°E)
Time: 20:56:12
(UTC+00:00)

Hubble Space Telescope - Visible Passes

Search period start: 18 November 2019 00:00
Search period end: 28 November 2019 00:00
Orbit: 536 x 540 km, 28.5° (Epoch: 17 November)

Date Brightness Start Highest point End Pass type
(mag) Time Alt. Az. Time Alt. Az. Time Alt. Az.
18 Nov 3.0 08:42:48 10° S 08:44:52 14° SSE 08:46:37 11° SE visible
18 Nov 3.9 10:21:57 10° SW 10:21:57 10° SW 10:21:57 10° SW visible
19 Nov 2.9 08:31:35 10° SSW 08:34:10 16° SSE 08:36:40 10° ESE visible
19 Nov 3.6 10:11:13 10° SW 10:12:00 14° SW 10:12:00 14° SW visible
20 Nov 2.7 08:20:32 10° SSW 08:23:29 19° SSE 08:26:27 10° ESE visible
20 Nov 3.1 10:00:31 10° WSW 10:02:02 19° SW 10:02:02 19° SW visible
21 Nov 2.6 08:09:36 10° SW 08:12:49 22° SSE 08:16:01 10° ESE visible
21 Nov 2.7 09:49:50 10° WSW 09:52:03 25° SW 09:52:03 25° SW visible
22 Nov 2.5 07:58:45 10° SW 08:02:08 25° SSE 08:05:31 10° ESE visible
22 Nov 2.3 09:39:11 10° WSW 09:42:05 30° SSW 09:42:05 30° SSW visible
23 Nov 2.0 09:28:34 10° WSW 09:32:07 32° S 09:32:07 32° S visible
24 Nov 2.0 09:17:57 10° WSW 09:21:38 31° S 09:22:12 30° SSE visible
25 Nov 2.3 09:07:22 10° WSW 09:10:58 29° S 09:12:20 24° SSE visible
26 Nov 2.4 08:56:49 10° WSW 09:00:18 27° S 09:02:33 17° SE visible
27 Nov 2.7 08:46:17 10° WSW 08:49:39 24° SSW 08:52:50 11° SE visible
